Overview Statistics Trail Chart Weather Telemetry Raw packets
 

This is the latest recevied weather packets stored in our database for station/object XE2RCS-1. If no packets are shown the sender has not sent any weather packets the latest 10 day(s).

<< 36 37 38 39 40 41 42 >>
Time Temp. Humidity Pressure Rain* Wind** Luminosity Snow
1788122521 26.11° C 35% 1016 hPa 0 mm - - -
1788121921 27.22° C 35% 1016 hPa 0 mm - - -
1788121320 28.33° C 35% 1018 hPa 0 mm - - -
1788120720 28.33° C 35% 1018 hPa 0 mm - - -
1788120119 28.33° C 31% 1015 hPa 0 mm - - -
1788119518 27.78° C 31% 1015 hPa 0 mm - - -
1788118918 27.78° C 33% 1016 hPa 0 mm - - -
1788118317 28.33° C 36% 1019 hPa 0 mm - - -
1788117716 28.33° C 36% 1019 hPa 0 mm - - -
1788117116 27.78° C 32% 1019 hPa 0 mm - - -
1788116515 27.78° C 32% 1017 hPa 0 mm - - -
1788115914 27.78° C 32% 1017 hPa 0 mm - - -
1788115314 27.22° C 32% 1017 hPa 0 mm - - -
1788114713 27.22° C 33% 1017 hPa 0 mm - - -
1788114112 27.22° C 33% 1020 hPa 0 mm - - -
1788113512 27.78° C 34% 1020 hPa 0 mm - - -
1788112911 27.78° C 35% 1018 hPa 0 mm - - -
1788112311 27.78° C 35% 1018 hPa 0 mm - - -
1788111710 27.22° C 37% 1018 hPa 0 mm - - -
1788111109 27.22° C 37% 1017 hPa 0 mm - - -
1788110509 27.22° C 37% 1021 hPa 0 mm - - -
1788109908 26.67° C 38% 1019 hPa 0 mm - - -
1788109307 26.67° C 38% 1019 hPa 0 mm - - -
1788108707 26.11° C 39% 1019 hPa 0 mm - - -
1788108106 26.11° C 40% 1019 hPa 0 mm - - -

* Rain latest hour (hover to see other rain measurements)
** Current wind speed in m/s (hover to see current wind gust speed)